Погода в Аспиндзе

Погода в Аспиндзе : погода сейчас, прогноз погоды и архив. Всё, что Вы хотите узнать о погоде в Аспиндзе!

Поиск расширенной информации на нашем сайте:

Полезная информация: как избавиться от целлюлита
ссангйонг кайрон ремонт

Другие новости

Новости СМИ2

Главная страница сайта

Новости сайта

02.10.2013

Напоминаем, что на нашем новом сайте вы можете получить высокодетализированные прогнозы погоды по пунктам России, СНГ и мира (включающие важные для авиации метеовеличины, такие как направление и скорость ветра, видимость, явления погоды, количество и форма облачности, нижняя и верхняя граница облачности), а также ознакомиться с разнообразными материалами по авиационной метеорологии и подборкой полезных ссылок на эту тему.

Сайт Метеоцентр.Азия посвящён разработке технологий оптимизации авиаметеорологического обслуживания, включая проектирование и перспективное создание нескольких автоматизированных авиаметеорологических систем:
- система выпуска высокодетальных прогностических карт явлений погоды для нижнего воздушного пространства по России и ближнему зарубежью;
- система верификации прогнозов TAF (выпускаемых синоптиками официальных АМСГ РФ и ближнего зарубежья) и AUTOTAF (выпускаемых сайтом Метеоцентр.Азия) - выявление ошибок, онлайн-сопоставление с фактической погодой METAR, автоматическое внесение коррективов в прогнозы при резком отклонении фактической погоды от прогноза, подсчёт оправдываемости прогнозов по элементам и в целом;
- система обработки, анализа и отображения авиаметеорологической информации для применения провайдерами метеорологической информации.

Рекомендуем: Например, при воспроизведении рекламные экраны в спб состоянии "покоя"

Погода в Аспиндзе - сегодня

Время (UTC), дата Ветер
(°,м/с) 
Видим.   Явления Облачность Т
(°С)
Тd
(°С)
f(%) Тe
(°С)
Pmin
(гПа)
dP
(гПа)
Po
(мм)
O2
(г/м3)
Тmin Tmax R s Состояние
почвы
18 16.02.17 тихо ()   4000 м    9/9 1000 м 
[Sc]
-8.2 -11.9 75 -8  1024.4  -0.1  678  283    -0.4  0.0     
21 16.02.17 тихо ()   4000 м    5/5 1000 м 
[Sc]
-9.6 -12.2 81 -10  1037.9  1.1  679  284           
00 17.02.17 тихо ()   4000 м    9/9 1000 м 
[Sc]
-10.4 -13.2 80 -10  1030.2  1.7  680  286           
03 17.02.17 тихо ()   4000 м    9/9 1000 м 
[Sc]
-12 -14 85 -12  1031.6  0.6  681  288        11   
06 17.02.17 тихо ()   20000 м  {снег}  3/3 1000 м 
[Sc]
-8.3 -11.1 80 -8  1031.3  1.3  682  284  -13.2         
12 17.02.17 090 (В) 20000 м    10/10 1000 м 
[Sc]
-2 -11 50 -6  1027.6  -0.9  681  277           
18 17.02.17 тихо ()   4000 м    ясно 1000 м 
-9.8 -15.1 65 -10  1032.6  1.4  682  286    -2  0.0     
21 17.02.17 тихо ()   4000 м    ясно 1000 м 
-14.1 -17.6 75 -14  1036.6  1.6  683  291           
00 18.02.17 тихо ()   4000 м    ясно 1000 м 
-13.7 -17.2 75 -14  1037.1  0.8  684  291           
06 18.02.17 тихо ()   20000 м    ясно 
-13.1 -17.4 70 -13  1040  2.3  686  291  -17.2         
09 18.02.17 тихо ()   20000 м    ясно 
-4.1 -12.5 52 -4  1034.9  -0.7  685  281           
12 18.02.17 тихо ()   20000 м    ясно 
-1.2 -13.3 39 -1  1031.5  -1.8  684  278           
15 18.02.17 тихо ()   20000 м    ясно 
-3.4 -12.4 50 -3  1033.8  1.1  685  280    -0.4       
18 18.02.17 тихо ()   4000 м    ясно 
-7.1 -14 58 -7  1036.5  0.9  685  285    -0.4       
21 18.02.17 тихо ()   4000 м    ясно 
-9.6 -14.2 69 -10  1039.4  1.5  686  288           
00 19.02.17 тихо ()   4000 м    ясно 
-11.2 -15.6 70 -11  1041.4  687  290           
06 19.02.17 тихо ()   20000 м    ясно 
-9 -13.4 70 -9  1041.9  0.8  688  288  -15.6         
09 19.02.17 тихо ()   20000 м    ясно 
-3.1 -11.3 53 -3  1038.4  -0.5  688  281           
12 19.02.17 тихо ()   20000 м    ясно 
+1.6 -10.9 39 +2  1033.6  -2.3  686  276           
15 19.02.17 тихо ()   20000 м    1/1 1000 м 
[Sc]
-2.3 -11.5 49 -2  1034.6  -0.7  686  280    +2.2       
18 19.02.17 тихо ()   4000 м    ясно 
-5.1 -12 58 -5  1037.1  686  283    +2.2       
21 19.02.17 тихо ()   4000 м    ясно 
-9.4 -12.9 76 -9  1040  0.6  687  288           
00 20.02.17 тихо ()   4000 м    ясно 
-11.5 -14.3 80 -12  1041.8  0.7  687  290           
03 20.02.17 тихо ()   4000 м    ясно 
-13.3 -15.3 85 -13  1042.9  0.2  688  292         
06 20.02.17 тихо ()   20000 м    4/0 верхняя 
[Ci fib]
-10.6 -13.9 77 -11  1040.6  -0.9  687  289  -15.1         
Время (UTC), дата Ветер
(°,м/с) 
Видим.   Явления Облачность Т
(°С)
Тd
(°С)
f(%) Тe
(°С)
Pmin
(гПа)
dP
(гПа)
Po
(мм)
O2
(г/м3)
Тmin Tmax R s Состояние
почвы

Для получения пояснительной информации подведите курсор к названию столбца.

ПОГОДА в Аспиндзе - архив

Всё, что Вы хотите узнать о погоде в Аспиндзе - удобно и подробно!

Выберите нужную дату (начиная с 1 января 2015* года) и нажмите кнопку "Найти".
Будут отображены архивные сводки погоды по пункту Аспиндза, начиная с указанной даты.


Отображать данные в формате CSV (для использования в таблицах Excel)


Внимание! Наш архив погоды предназначен исключительно для личного некоммерческого использования в познавательных целях. Если Вам необходимы официальные справки о состоянии погоды (для производственных, юридических, коммерческих и т.п. целей), обращайтесь в органы Росгидромета.

*Примечание: данная дата относится к архиву по метеостанциям СССР (Россия, СНГ, Балтия).
Архив по метеостанциям Зарубежной Европы и Азии (кроме Китая) хранится 10 дней, по другим регионам земного шара (Китай, Африка, Америка, Австралия, Океания) - 1 день.

Аспиндза - район местоположения метеостанции


Название, широта, долгота, высота метеостанции:
Аспиндза 41.6°ш. 43.2°д. 983 м над ур. моря [Грузия]

Дополнительная информация

В oтличие oт бoльшинства пoгoдных сайтoв мы публикуем пoдрoбную метеoинфoрмацию в детальнoм прoфессиoнальнoм фoрмате.

Характеристики температуры и влажнoсти вoздуха измеряются на высoте 2 м в тени вдали oт зданий и деревьев.
Скoрoсть ветра измеряется на высoте 10 м (на урoвне рoста челoвека скoрoсть ветра ниже в 1.5-2 раза). Если метеoстанция нахoдится в гoрoде или в лесу, тo скoрoсть ветра занижена на 2-4 м/с пo сравнению с oткрытым местoм. Скoрoсть ветра над акватoриями крупных рек и oзёр, а также на вершинах хoлмoв на 2-5 м/с выше, чем в oбычных услoвиях.
Атмoсфернoе давление в разных тoчках местнoсти мoжет значительнo oтличаться oт давления на метеoстанции, в зависимoсти oт услoвий рельефа (при пoдъёме на 10 м давление пoнижается примернo на 1 мм рт.ст.).